Regional Weather Roundup
Issued by NWS San Angelo, TX

Home | Current Version | Previous Version | Text Only | Print | Product List | Glossary On
Versions: 1 2 3 4 5 6 7 8 9 10 11 12 13 14 15 16 17 18 19 20 21 22 23 24 25 26 27 28 29 30 31 32 33 34 35 36 37 38 39 40 41 42 43 44 45 46 47 48 49 50
000
ASUS44 KSJT 020202
RWRSJT
WEST CENTRAL TEXAS REGIONAL WEATHER ROUNDUP
NATIONAL WEATHER SERVICE SAN ANGELO TX
900 PM CDT SUN MAY 01 2016

NOTE: "FAIR" INDICATES FEW OR NO CLOUDS BELOW 12,000 FEET WITH NO
SIGNIFICANT WEATHER AND/OR OBSTRUCTIONS TO VISIBILITY.

TXZ049-054-064>066-071>073-076>078-098-099-113-114-127-128-139-140-
154-155-168>170-020300
...LOCATIONS ACROSS WEST CENTRAL TEXAS...

CITY           SKY/WX    TMP DP  RH WIND       PRES   REMARKS
SAN ANGELO     CLOUDY    62  44  51 N17       30.06R
ABILENE        CLOUDY    57  46  66 N20       30.11R
DYESS AFB      CLOUDY    55  46  71 N18       30.10R
JUNCTION       CLOUDY    68  50  52 N14       30.00R
SWEETWATER     NOT AVBL
BROWNWOOD      CLOUDY    66  46  48 N13G18    30.05R
COLEMAN        CLOUDY    63  46  53 N14G22    30.07R
SONORA         NOT AVBL
OZONA          NOT AVBL
BRADY          NOT AVBL
$$

TEXAS PANHANDLE/OKLAHOMA PANHANDLE

CITY           SKY/WX    TMP DP  RH WIND       PRES   REMARKS
AMARILLO       CLOUDY    43  36  76 N13       30.23R WCI  36
BORGER         CLOUDY    46  38  73 N10       30.23R
CANADIAN       CLOUDY    48  41  76 N7        30.21S
DALHART        CLOUDY    43  37  79 N13       30.25R WCI  36
DUMAS          CLOUDY    41  37  86 N14       30.23R WCI  33
GUYMON         NOT AVBL
HEREFORD       CLOUDY    44  38  81 N15G21    30.24R WCI  37
PAMPA          NOT AVBL
PERRYTON       NOT AVBL
$$

SOUTHERN PANHANDLE/SOUTH PLAINS/ROLLING PLAINS

CITY           SKY/WX    TMP DP  RH WIND       PRES   REMARKS
LUBBOCK        CLOUDY    46  37  71 N18G24    30.18R WCI  39
SNYDER           N/A     55  41  59 N13       30.14R
CHILDRESS      CLOUDY    53  39  59 N13       30.19R
SEMINOLE       CLOUDY    49  37  63 N16G24    30.18R
$$

PERMIAN BASIN

CITY           SKY/WX    TMP DP  RH WIND       PRES   REMARKS
MIDLAND        CLOUDY    57  38  48 NE16      30.13R
ODESSA         CLOUDY    57  36  45 NE14      30.14R
WINK           CLOUDY    56  37  49 N15       30.14R
$$

FAR WEST/SOUTHWEST MOUNTAINS/TRANS PECOS

CITY           SKY/WX    TMP DP  RH WIND       PRES   REMARKS
ALPINE         NOT AVBL
DRYDEN           N/A     61  41  47 N12G23    30.05R
EL PASO        PTCLDY    55  33  43 E17G24    30.03R
FORT STOCKTON  CLOUDY    56  37  49 N10       30.12R
GUADALUPE PASS NOT AVBL
MARFA          CLEAR     46  33  60 N26G33    30.10R WCI  37
PECOS          NOT AVBL
$$

DALLAS/FORT WORTH METROPLEX

CITY           SKY/WX    TMP DP  RH WIND       PRES   REMARKS
DFW AIRPORT    PTCLDY    68  49  50 NE13      30.01R
FTW MEACHAM    CLEAR     67  50  54 N12       30.01R
DAL-EXECUTIVE  MOCLDY    68  49  50 N12       30.00R
GRAND PRAIRIE  CLEAR     68  49  51 N10       30.02R
ADDISON        NOT AVBL
MESQUITE       CLOUDY    68  51  54 N10       30.00R
LANCASTER      MOCLDY    69  49  48 N6        30.01R
$$

NORTH CENTRAL TEXAS

CITY           SKY/WX    TMP DP  RH WIND       PRES   REMARKS
SHRMAN/DENISON CLEAR     58  46  66 N7        30.04S
GAINESVILLE    NOT AVBL
BRIDGEPORT     PTCLDY    64  49  60 N8G16     30.07R
DENTON         CLEAR     62  51  67 N8        30.03R
WAXAHACHIE     MOCLDY    65  55  69 N5        30.01R
GRANBURY       CLOUDY    68  54  60 NW5       30.04R
$$

WESTERN NORTH TEXAS

CITY           SKY/WX    TMP DP  RH WIND       PRES   REMARKS
WICHITA FALLS  CLOUDY    54  50  86 N15       30.12R
VERNON         CLOUDY    57  40  54 N12G18    30.17R
BRECKENRIDGE   NOT AVBL
COMANCHE       CLOUDY    65  49  56 N9        30.04R
$$

CENTRAL AND SOUTH CENTRAL TEXAS

CITY           SKY/WX    TMP DP  RH WIND       PRES   REMARKS
AUSTIN/BERGSTM MOCLDY    68  58  70 N10       29.92R
WACO           CLOUDY    68  54  60 N7        29.98R
HILLSBORO      MOCLDY    64  56  75 N7        30.00R
TEMPLE         MOCLDY    67  56  67 N9        29.97R
KILLEEN-GRAY   NOT AVBL
FORT HOOD      NOT AVBL
GEORGETOWN     MOCLDY    68  55  64 N8        29.96R
LAGO VISTA     CLOUDY    69  56  62 NE6       29.97R
SAN MARCOS     CLOUDY    70  57  64 N13       29.93R
NEW BRAUNFELS  CLOUDY    71  57  61 NE9       29.90R
RANDOLPH AFB   NOT AVBL
SAN ANTONIO    CLOUDY    73  57  57 N10       29.92R
STINSON        PTCLDY    74  56  53 NE14G23   29.89R
PLEASANTON     NOT AVBL
LA GRANGE      NOT AVBL
GIDDINGS       CLOUDY    71  59  66 N6        29.95R
$$

EAST TEXAS

CITY           SKY/WX    TMP DP  RH WIND       PRES   REMARKS
PARIS          PTCLDY    64  48  55 N9        29.99R
CLARKSVILLE    NOT AVBL
TYLER          PTCLDY    70  57  63 N5        29.95R
LONGVIEW       MOCLDY    72  62  71 NW5       29.92R
PALESTINE      CLEAR     69  61  75 N7        29.94S
NACOGDOCHES    MOCLDY    73  66  78 N5        29.91R
$$

TEXAS HILL COUNTRY AND EDWARDS PLATEAU

CITY           SKY/WX    TMP DP  RH WIND       PRES   REMARKS
LLANO          NOT AVBL
HORSESHOE BAY  CLOUDY    70  55  58 N5        29.99R
KERRVILLE      CLOUDY    66  58  73 NE7       29.97R
FREDERICKSBRG  NOT AVBL
ROCKSPRINGS    NOT AVBL
HONDO          MOCLDY    72  59  63 NE12      29.92R
UVALDE         MOCLDY    71  61  70 NE10      29.91R
DEL RIO        CLOUDY    66  59  78 W13       29.93R
$$

SOUTHEAST TEXAS

CITY           SKY/WX    TMP DP  RH WIND       PRES   REMARKS
COLLEGE STN    PTCLDY    74  60  61 N8        29.91R
CALDWELL       NOT AVBL
CROCKETT       NOT AVBL
BRENHAM        NOT AVBL
HUNTSVILLE     LGT RAIN  76  69  79 VRB3      29.91R
CONROE         CLOUDY    73  72  96 CALM      29.91R
HOUSTON BUSH   CLOUDY    73  70  90 SE5       29.89R
HOUSTON HOBBY  CLOUDY    76  71  85 E10       29.87R
PERLAND        CLOUDY    77  71  82 E8        29.88R
WHARTON        CLOUDY    76  73  91 E16G22    29.87R THUNDER FOG
$$

THE UPPER TEXAS COAST

CITY           SKY/WX    TMP DP  RH WIND       PRES   REMARKS
ORANGE         MOCLDY    72  68  88 SE6       29.90R
PORT ARTHUR    MOCLDY    72  70  93 E6        29.87R
GALVESTON      CLOUDY    75  72  90 E15       29.87S
ANGLETON       CLOUDY    76  72  87 E12G18    29.86R
BAY CITY       CLOUDY    76  75  96 E8        29.85R FOG
$$

TEXAS COASTAL BEND, RIO GRANDE PLAINS DEEP SOUTH TEXAS

CITY           SKY/WX    TMP DP  RH WIND       PRES   REMARKS
VICTORIA       MOCLDY    77  68  73 NE12      29.86R
BEEVILLE       FAIR      78  69  72 NE13      29.83R
ROCKPORT       PTCLDY    81  75  82 E14       29.82R
PORT ARANSAS   NOT AVBL
PORT LAVACA    NOT AVBL
CORPUS CHRISTI MOCLDY    81  74  79 E12       29.81R
KINGSVILLE NAS CLOUDY    79  77  94 E12       29.80R
COTULLA        CLOUDY    79  63  57 NE14G23   29.85R
LAREDO         MOCLDY    83  69  62 NE20G28   29.80R
BROWNSVILLE    CLOUDY    79  76  90 NE6       29.78R
PORT ISABEL    CLOUDY    81  76  84 NE9       29.77R
HEBBRONVILLE   NOT AVBL
MCALLEN        CLOUDY    84  73  69 E13       29.77R
WESLACO        NOT AVBL
FALFURRIAS     CLOUDY    81  73  76 E8        29.79R
EDINBURG       PTCLDY    82  73  74 E8        29.78R
$$



USA.gov is the U.S. government's official web portal to all federal, state and local government web resources and services.